Погода в Сергеевке

Россия / Амурская область     50°45′28″N   127°17′44″E
темп.,
°C
ветер,
м/с
пор.,
м/с
влажн.,
%
обл.,
%
осадки,
мм/ч
давл.,
гПа
погр.,
м
5 декабря, вс
вс500:00−16ю36958 0.0 1014107
03:00−16ююв249794 0.0 101368
06:00−17ююв229833 0.0 101231
09:00−16ююв2398100 0.0 101345
12:00−9ююв2388100 0.0 1011193
15:00−9юв2394100 0.0 1010132
18:00−11юз1197100 0.0 101120
21:00−13зсз259756 0.0 101376
6 декабря, пн
пн600:00−16зсз229712 0.0 101538
03:00−18з21975 0.0 101614
06:00−17зюз2296100 0.0 101726
09:00−11зсз311795 0.0 1018251
12:00−6зсз513620 0.0 1020801
15:00−6зсз510595 0.0 1021396
18:00−13юз2590100 0.0 102378
21:00−10зюз3980100 0.0 1022195
7 декабря, вт
вт700:00−8юз3879100 0.0 1021217
03:00−11зюз23895 0.0 102271
06:00−15юз119550 0.0 102310
09:00−16зюз11955 0.0 102510
12:00−7ююз12772 0.0 1024131
15:00−7ююв22895 0.0 102433
18:00−13ююз229616 0.0 102622
21:00−13ююз22955 0.0 102624
8 декабря, ср
ср800:00−13ю229614 0.0 102612
03:00−13ю229638 0.0 102621
06:00−13ю229627 0.0 102520
09:00−11ю249113 0.0 102558
12:00−3ю387615 0.0 1023287
15:00−4ююв358753 0.0 1021114
18:00−7ююв3892100 0.0 1020125
21:00−8ююв3792100 0.0 1019125
9 декабря, чт
чт900:00−8ю3792100 0.0 1019149
03:00−8ююв2794100 0.0 1016130
06:00−7ююв3894100 0.0 1014198
09:00−5ю3893100 0.1 1014264
12:00−2юз2788100 0.2 1014645
15:00−3сз3694100 0.4 1015525
18:00−7сз41087100 0.1 1019501
21:00−9сз410865 0.1 1022319